Flag for United Kingdom Weather past 2 weeks in St. Peter Port, Guernsey, United Kingdom

Now
46 °F

Overcast.


Feels Like: 42 °F
Forecast: N/A
Wind: 8 mph from Northwest

Location: Cherbourg / Maupertus

Current Time: Dec 25, 2014 at 8:04:51 PM

Latest Report: Dec 25, 2014 at 7:30 PM


Visibility: N/A

Pressure: 30.51 "Hg

Humidity: 66%

Dew point: 36 °F

Location of St. Peter PortLocation

Historic Weather in St. Peter Port — Graph

°F

St. Peter Port temperature yesterday

Maximum temperature yesterday: 52 °F (at 9:00 AM)
Minimum temperature yesterday: 46 °F (at 7:30 PM)
Average temperature yesterday: 49 °F

Past Weeks' High & Low Weather Summary

 TemperatureHumidityPressure
High54 °F (Dec 17, 10:00 AM)100% (Dec 12, 12:00 PM)30.54 "Hg (Dec 12, 12:00 PM)
Low36 °F (Dec 14, 1:30 AM)57% (Dec 24, 10:00 PM)29.45 "Hg (Dec 12, 7:00 AM)
Average48 °F83%30.07 "Hg
* Reported Dec 10 6:00 PM — Dec 25 6:30 PM, St. Peter Port, Weather by CustomWeather, © 2014

Note: Actual official high and low records may vary slightly from our data, if they occured in-between our weather recording intervals... More about our weather records

Advertising

St. Peter Port weather history for previous 24 hours

 ConditionsComfort  
Time TempWeatherWind HumidityBarometerVisibility
6:30 PM
Dec 25
46 °FPartly cloudy.6 mph66%30.51 "HgN/A
6:00 PM46 °FPartly cloudy.8 mph66%30.51 "HgN/A
5:30 PM46 °FPassing clouds.7 mph71%30.51 "HgN/A
5:00 PM46 °FPassing clouds.8 mph66%30.51 "HgN/A
4:30 PM46 °FPassing clouds.9 mph71%30.48 "HgN/A
4:00 PM46 °FPartly sunny.7 mph66%30.48 "HgN/A
3:30 PM46 °FPartly sunny.10 mph71%30.48 "HgN/A
3:00 PM46 °FPassing clouds.12 mph71%30.48 "HgN/A
2:30 PM48 °FPartly sunny.13 mph66%30.48 "HgN/A
2:00 PM46 °FPartly sunny.10 mph71%30.45 "HgN/A
1:30 PM48 °FPartly sunny.12 mph66%30.45 "HgN/A
1:00 PM48 °FScattered clouds.13 mph66%30.45 "HgN/A
12:30 PM48 °FBroken clouds.15 mph66%30.45 "HgN/A
12:00 PM48 °FPartly sunny.12 mph71%30.45 "HgN/A
11:30 AM48 °FScattered clouds.13 mph66%30.45 "HgN/A
11:00 AM48 °FPartly sunny.12 mph66%30.45 "HgN/A
10:30 AM48 °FMostly cloudy.14 mph66%30.45 "HgN/A
10:00 AM48 °FMore clouds than sun.13 mph66%30.45 "HgN/A
9:30 AM48 °FMostly cloudy.14 mph66%30.45 "HgN/A
9:00 AM48 °FMore clouds than sun.14 mph66%30.42 "HgN/A
8:30 AM48 °FPartly sunny.13 mph71%30.42 "HgN/A
8:00 AM48 °FPartly cloudy.14 mph66%30.42 "HgN/A
7:30 AM46 °FPassing clouds.15 mph71%30.39 "HgN/A
7:00 AM48 °FPartly cloudy.14 mph66%30.39 "HgN/A
6:30 AM46 °FPartly cloudy.15 mph71%30.39 "HgN/A
6:00 AM46 °FPartly cloudy.15 mph71%30.39 "HgN/A
5:30 AM46 °FMostly cloudy.15 mph66%30.36 "HgN/A
5:00 AM46 °FPartly cloudy.14 mph66%30.36 "HgN/A
4:30 AM46 °FPassing clouds.14 mph66%30.36 "HgN/A
3:30 AM46 °FPassing clouds.12 mph66%30.36 "HgN/A
3:00 AM46 °FPartly cloudy.12 mph66%30.36 "HgN/A
2:30 AM46 °FPassing clouds.9 mph66%30.36 "HgN/A
2:00 AM46 °FPassing clouds.12 mph62%30.36 "HgN/A
1:30 AM46 °FPassing clouds.14 mph62%30.33 "HgN/A
1:00 AM46 °FPassing clouds.12 mph62%30.33 "HgN/A
12:30 AM46 °FPassing clouds.9 mph62%30.33 "HgN/A
12:00 AM46 °FPassing clouds.12 mph66%30.33 "HgN/A
11:30 PM
Dec 24
46 °FPassing clouds.13 mph66%30.33 "HgN/A
11:00 PM46 °FPassing clouds.12 mph66%30.33 "HgN/A
10:30 PM46 °FPassing clouds.12 mph62%30.33 "HgN/A
10:00 PM46 °FPassing clouds.10 mph57%30.30 "HgN/A
9:30 PM46 °FPassing clouds.10 mph62%30.30 "HgN/A
9:00 PM46 °FMostly cloudy.12 mph62%30.30 "HgN/A
8:30 PM46 °FPassing clouds.9 mph62%30.30 "HgN/A
8:00 PM46 °FOvercast.10 mph62%30.30 "HgN/A
Weather by CustomWeather, © 2014

See weather overviewHow to use our weather pages